Location: Eschertshofen
(49.3064°N, 11.5756°E)
Time: 22:51:14
(UTC+00:00)

Cosmos 1627 Rocket - Pass Details

Date: 18 September 2020
Orbit: 951 x 1003 km, 82.9° (Epoch: 21 October)

Event Time Altitude Azimuth Distance (km) Brightness Sun altitude
Rises 19:42:03 0° 350° (N) 3,731 8.2 -22.8°
Reaches altitude 10° 19:44:35 10° 351° (N) 2,781 7.4 -23.2°
Maximum altitude 19:51:01 90° 76° (ENE) 1,011 4.5 -24.0°
Enters shadow 19:53:35 40° 172° (S) 1,450 5.0 -24.4°
